Weather in Nikolo-Barnuki

Russia / Penza Oblast     53°27′12″N   46°19′09″E
temp.,
°C
wind,
m/s
gust,
m/s
humid.,
%
clouds,
%
prec.,
mm/h
press.,
hPa
HPBL,
m
3 march, wed
wed300:00−4wnw379897 0.1 1004182
03:00−7wnw349781 0.2 100565
06:00−6nw599693 0.1 1005340
09:00−4nw798996 0.3 1007787
12:00−5nw7988100 0.1 1008799
15:00−5nw71088100 0.3 1009784
18:00−6wnw61093100 0.1 1010768
21:00−7wnw41189100 0.3 1011445
4 march, thu
thu400:00−8w5119566 0.1 1010288
03:00−6wsw6139482 0.3 1009515
06:00−4wsw71394100 0.3 1007728
09:00−3wsw81391100 0.4 1005776
12:00−1wsw101595100 0.4 10021057
15:000wsw91596100 1.1 1002983
18:00−1wsw81496100 1.3 1002878
21:00−1wsw61297100 2.1 1002715
5 march, fri
fri500:00−1sw61195100 0.6 1001538
03:00−1sw61296100 0.9 1000494
06:000wsw51198100 0.9 999590
09:000wsw71298100 2.4 999648
12:00−2n5694100 0.5 1001538
15:00−3n5790100 0.8 1005617
18:00−7nnw359497 0.1 100999
21:00−11n239390 0.1 101226
6 march, sat
sat600:00−12nne2291100 0.0 101421
03:00−13nne2288100 0.0 101420
06:00−15ne2288100 0.0 101420
09:00−12nne128691 0.0 1013111
12:00−8nnw237732 0.0 1013368
15:00−6wnw358219 0.0 1012673
18:00−9w3396100 0.1 101354
21:00−11nw499595 0.2 1015263
7 march, sun
sun700:00−16nw349777 0.0 101645
03:00−18w239340 0.0 101720
06:00−18sw34920 0.0 101646
09:00−13ssw59910 0.0 1015300
12:00−8sw8128843 0.0 1012975
15:00−6sw9148672 0.1 10081112
18:00−7ssw101786100 0.1 10061010
21:00−6sw111893100 1.0 10031104